Orbital Elements at Epoch 2459200.5 (2020-Dec-17.0) TDB
Reference: JPL 34 (heliocentric ecliptic J2000)
Element | Value | Uncertainty (1-sigma) | Units |
e | .1374685363874908 | 2.1414e-08 | |
a | 2.24392917779047 | 6.6085e-09 | au |
q | 1.935459517962428 | 4.8383e-08 | au |
i | 6.791404552968947 | 4.961e-07 | deg |
node | 156.1578044129195 | 8.6872e-06 | deg |
peri | 145.1091870676963 | 9.7241e-06 | deg |
M | 312.9810129331261 | 6.193e-06 | deg |
tp | 2459360.855150432362 (2021-May-26.35515043) | 2.1597e-05 | TDB |
period | 1227.756226937544 3.36 | 5.4237e-06 1.485e-08 | d yr |
n | .293217816453651 | 1.2953e-09 | deg/d |
Q | 2.552398837618512 | 7.517e-09 | au |
|
| | Orbit Determination Parameters
Additional Information
|